Stations météo

réclame
Mon MeteoGroup
Tholey, Allemagne (10706): Température de l'air & dewpoint: 16.07.2018 08:00:00 - 22.07.2018 08:00:00 (CEST)Tholey, Allemagne (10706): Température de l'air 5cm & Température de l'air -5cm: 16.07.2018 08:00:00 - 22.07.2018 08:00:00 (CEST)Tholey, Allemagne (10706): Température de l'air -20cm & Température de l'air -100cm: 16.07.2018 08:00:00 - 22.07.2018 08:00:00 (CEST)Tholey, Allemagne (10706): Vitesse du vent & gusts: 16.07.2018 08:00:00 - 22.07.2018 08:00:00 (CEST)Tholey, Allemagne (10706): Direction du vent: 16.07.2018 08:00:00 - 22.07.2018 08:00:00 (CEST)Tholey, Allemagne (10706): reduced air pressure: 16.07.2018 08:00:00 - 22.07.2018 08:00:00 (CEST)Tholey, Allemagne (10706): visibility: 16.07.2018 08:00:00 - 22.07.2018 08:00:00 (CEST)Tholey, Allemagne (10706): Ensoleillement: 16.07.2018 08:00:00 - 22.07.2018 08:00:00 (CEST)Tholey, Allemagne (10706): Quantités de précipitations: 16.07.2018 08:00:00 - 22.07.2018 08:00:00 (CEST)
Date & Time tt [°C] td [°C] tt 5cm [°C] tt -5cm [°C] tt -20cm [°C] tt -100cm [°C] ff [km/h] ff [knt] fx [km/h] fx [knt] dd ppp [hPa] vv [km] sd [min] rr [mm]
22.07.2018 08:00:00 15,2 14,5 15,7 18,5 21,7 19,1 7 4 11 6 W 1014,6 4,7 0 0,0
22.07.2018 07:00:00 14,9 14,4 14,8 18,2 22,0 19,1 8 5 12 6 W 1014,1 3,9 0 0,0
22.07.2018 06:00:00 15,0 14,2 14,6 18,2 22,2 19,0 5 3 9 5 W 1013,9 8 0 0,0
22.07.2018 05:00:00 15,0 14,0 14,4 18,2 22,5 19,0 7 4 11 6 WSW 1013,7 11 0 0,0
22.07.2018 04:00:00 15,4 14,2 14,7 18,1 22,8 19,0 6 3 10 5 WSW 1013,6 14 0 0,0
22.07.2018 03:00:00 15,1 14,3 12,9 18,6 23,1 19,0 3 2 4 2 SSW 1013,7 13 0 0,0
22.07.2018 02:00:00 14,6 14,3 13,4 19,1 23,5 19,0 4 2 11 6 ESE 1013,8 4,3 0 0,0
22.07.2018 01:00:00 16,1 14,3 14,3 19,7 23,9 19,0 9 5 10 6 WNW 1013,6 26 0 0,0
22.07.2018 00:00:00 15,2 14,8 14,7 20,6 24,2 19,0 7 4 10 6 WSW 1013,5 0,4 0 0,0
21.07.2018 23:00:00 16,8 13,6 15,2 21,7 24,5 19,0 3 1 9 5 E 1013,1 49 0 0,0
21.07.2018 22:00:00 17,0 14,5 16,2 22,9 24,8 19,0 4 2 13 7 NNW 1012,9 50 0 0,4
21.07.2018 21:00:00 17,0 13,9 16,4 24,3 24,9 19,0 9 5 35 19 W 1013,3 26 0 0,1
21.07.2018 20:00:00 21,4 13,6 21,8 27,8 24,7 19,0 14 8 31 17 NW 1012,1 43 1 0,0
21.07.2018 19:00:00 23,3 13,1 25,1 29,6 24,5 19,0 16 9 35 19 W 1011,2 36 37 0,0
21.07.2018 18:00:00 23,6 13,5 27,2 30,4 24,1 19,0 17 9 30 16 WSW 1011,2 26 55 0,0
21.07.2018 17:00:00 23,4 14,1 26,6 30,7 23,6 19,0 18 10 28 15 WSW 1011,1 17 58 0,0
21.07.2018 16:00:00 23,4 14,6 27,8 29,9 23,2 19,0 14 8 31 17 WSW 1011,3 28 46 0,0
21.07.2018 15:00:00 21,4 14,9 23,7 28,1 22,9 19,0 20 11 29 16 SW 1011,8 19 33 0,0
21.07.2018 14:00:00 23,4 15,6 28,3 25,7 22,8 18,9 13 7 24 13 WSW 1011,5 19 15 0,1
21.07.2018 13:00:00 19,2 17,0 19,8 23,0 22,8 18,9 8 5 22 12 W 1012,1 9 0 0,0
21.07.2018 12:00:00 18,2 15,2 19,3 22,7 22,7 18,9 16 9 25 13 W 1012,2 22 0 0,0
21.07.2018 11:00:00 19,5 14,8 21,4 22,3 22,8 18,9 13 7 22 12 SW 1011,6 22 0 0,0
21.07.2018 10:00:00 18,7 14,0 19,8 21,7 22,9 18,9 12 7 18 10 WSW 1011,5 18 0 0,0
21.07.2018 09:00:00 18,1 14,0 19,1 21,0 23,0 18,9 13 7 20 11 WSW 1011,3 18 0 0,0
21.07.2018 08:00:00 17,4 14,0 17,7 20,4 23,2 18,9 16 8 20 11 W 1010,9 19 0 0,0
21.07.2018 07:00:00 17,4 14,0 17,1 20,4 23,5 18,9 13 7 17 9 W 1010,8 22 0 0,0
21.07.2018 06:00:00 17,9 14,4 17,0 20,7 23,7 18,9 4 2 10 5 WSW 1011,0 23 0 0,0
21.07.2018 05:00:00 18,2 14,1 17,4 21,1 24,0 18,9 5 3 16 9 SSW 1010,9 20 0 0,0
21.07.2018 04:00:00 18,2 13,7 18,1 21,4 24,2 18,9 14 8 22 12 S 1011,1 21 0 0,0
21.07.2018 03:00:00 19,2 13,3 18,2 21,9 24,5 18,9 5 3 7 4 W 1010,5 27 0 0,0
21.07.2018 02:00:00 19,8 13,2 18,0 22,3 24,8 18,9 4 2 6 4 SW 1010,4 28 0 0,0
21.07.2018 01:00:00 20,4 13,0 18,3 22,9 25,1 18,9 5 3 9 5 W 1010,6 32 0 0,0
21.07.2018 00:00:00 21,0 13,0 17,7 23,7 25,4 18,9 5 3 10 6 WSW 1010,6 34 0 0,0
20.07.2018 23:00:00 22,3 12,8 20,8 24,7 25,7 18,8 6 4 19 10 NW 1010,4 39 0 0,0
20.07.2018 22:00:00 23,2 12,2 22,1 26,0 25,8 18,8 13 7 18 10 WNW 1010,5 41 0 0,0
20.07.2018 21:00:00 24,1 12,2 23,2 27,6 25,9 18,8 7 4 16 9 W 1010,4 47 30 0,0
20.07.2018 20:00:00 25,3 11,6 26,8 28,7 25,9 18,8 7 4 13 7 SSW 1010,1 42 44 0,0
20.07.2018 19:00:00 25,5 12,1 27,2 29,4 25,9 18,8 8 4 14 8 WSW 1010,1 46 6 0,0
20.07.2018 18:00:00 25,3 12,0 26,8 31,1 25,7 18,8 10 6 20 11 W 1010,8 39 15 0,0
20.07.2018 17:00:00 25,4 12,8 27,7 32,2 25,4 18,8 16 9 30 16 W 1011,3 37 33 0,0
20.07.2018 16:00:00 24,6 12,0 25,1 32,7 25,0 18,8 23 13 39 21 WSW 1011,7 35 11 0,0
20.07.2018 15:00:00 27,6 9,7 33,4 34,8 24,4 18,8 7 4 20 11 W 1011,3 48 47 0,0
20.07.2018 14:00:00 26,3 8,3 30,8 32,1 23,9 18,8 7 4 18 10 N 1012,0 66 21 0,0
20.07.2018 13:00:00 25,8 9,2 28,4 33,7 23,3 18,8 5 3 20 11 E 1012,4 57 51 0,0
20.07.2018 12:00:00 26,4 9,5 31,8 31,5 22,7 18,8 9 5 19 10 E 1012,6 33 60 0,0
20.07.2018 11:00:00 25,2 9,7 29,7 28,5 22,4 18,8 10 5 15 8 E 1012,9 38 60 0,0
20.07.2018 10:00:00 23,8 10,0 27,5 25,4 22,3 18,8 8 5 14 7 E 1013,4 36 60 0,0
20.07.2018 09:00:00 21,7 11,2 24,6 22,0 22,4 18,8 9 5 13 7 ENE 1013,6 28 51 0,0
20.07.2018 08:00:00 18,8 10,2 19,8 19,3 22,6 18,8 8 5 13 7 NE 1014,0 46 36 0,0
20.07.2018 07:00:00 17,6 8,5 16,7 18,5 22,9 18,8 8 4 11 6 NE 1014,3 47 2 0,0
20.07.2018 06:00:00 18,3 7,7 15,1 18,8 23,3 18,7 9 5 16 9 NE 1014,4 49 0 0,0
20.07.2018 05:00:00 19,1 7,7 16,6 19,2 23,6 18,7 12 7 16 8 NE 1014,4 49 0 0,0
20.07.2018 04:00:00 19,9 7,9 16,9 19,7 24,0 18,7 11 6 16 9 NE 1014,7 49 0 0,0
20.07.2018 03:00:00 19,6 9,1 17,0 20,3 24,4 18,7 12 7 15 8 NE 1014,7 47 0 0,0
20.07.2018 02:00:00 19,0 9,6 16,6 21,0 24,8 18,7 10 5 16 9 NE 1015,5 43 0 0,0
20.07.2018 01:00:00 20,4 9,4 17,9 21,9 25,2 18,7 10 5 14 7 NE 1015,5 49 0 0,0
20.07.2018 00:00:00 20,7 9,7 17,5 22,9 25,6 18,7 8 5 10 5 ENE 1015,4 52 0 0,0
19.07.2018 23:00:00 22,5 9,8 17,7 24,1 25,9 18,7 6 4 8 5 ENE 1015,1 57 0 0,0
19.07.2018 22:00:00 22,6 9,7 18,4 25,9 26,1 18,7 6 3 8 5 ENE 1015,0 55 0 0,0
19.07.2018 21:00:00 23,9 10,2 21,8 28,2 26,2 18,7 5 3 8 5 SE 1014,7 60 25 0,0
19.07.2018 20:00:00 24,5 9,4 24,7 30,3 26,1 18,7 6 3 10 6 ENE 1014,5 62 43 0,0
19.07.2018 19:00:00 26,5 9,0 29,2 32,0 25,9 18,7 4 2 10 5 E 1014,4 59 57 0,0
19.07.2018 18:00:00 26,1 8,7 29,5 33,3 25,5 18,7 5 3 13 7 S 1014,8 50 42 0,0
19.07.2018 17:00:00 26,5 8,4 32,5 35,0 24,9 18,7 6 3 13 7 S 1015,0 38 56 0,0
19.07.2018 16:00:00 24,6 9,0 27,5 34,9 24,3 18,7 8 4 19 11 NE 1015,9 59 38 0,0
19.07.2018 15:00:00 26,4 9,5 32,9 34,8 23,5 18,7 10 5 21 12 SSW 1015,9 50 50 0,0
19.07.2018 14:00:00 26,4 8,7 33,3 34,6 22,9 18,7 6 3 19 10 E 1016,1 24 51 0,0
19.07.2018 13:00:00 24,2 9,4 31,7 31,8 22,2 18,7 12 7 24 13 ESE 1016,7 41 47 0,0
19.07.2018 12:00:00 24,3 9,9 29,7 30,2 21,7 18,7 10 6 21 12 E 1016,9 37 60 0,0
19.07.2018 11:00:00 23,1 12,0 28,3 27,0 21,4 18,7 10 5 22 12 E 1017,3 31 60 0,0
19.07.2018 10:00:00 21,0 11,0 24,7 23,7 21,3 18,7 13 7 21 12 ENE 1017,6 25 60 0,0
19.07.2018 09:00:00 19,7 10,3 22,2 20,9 21,4 18,7 16 8 23 12 ENE 1017,8 21 60 0,0
19.07.2018 08:00:00 18,5 10,0 19,6 18,6 21,6 18,7 14 8 26 14 NE 1017,7 22 60 0,0
19.07.2018 07:00:00 17,4 9,2 17,1 17,4 21,9 18,7 19 11 26 14 NE 1017,8 8 35 0,0
19.07.2018 06:00:00 16,9 8,9 15,4 17,4 22,2 18,7 20 11 26 14 NE 1017,8 53 0 0,0
19.07.2018 05:00:00 17,2 9,0 15,5 17,8 22,5 18,7 19 10 23 13 NE 1017,7 55 0 0,0
19.07.2018 04:00:00 17,8 8,9 16,3 18,4 22,9 18,7 19 11 25 13 NE 1017,8 46 0 0,0
19.07.2018 03:00:00 17,7 9,0 16,0 18,8 23,2 18,7 17 9 25 14 NE 1017,9 45 0 0,0
19.07.2018 02:00:00 17,9 9,1 16,0 19,5 23,6 18,7 14 8 21 11 NE 1017,9 51 0 0,0
19.07.2018 01:00:00 18,6 9,3 17,0 20,3 24,0 18,7 14 8 23 13 NE 1017,7 57 0 0,0
19.07.2018 00:00:00 19,3 9,6 17,5 21,3 24,4 18,7 16 9 22 12 NNE 1017,3 55 0 0,0
18.07.2018 23:00:00 20,4 9,6 18,4 22,5 24,7 18,7 14 8 19 10 NNE 1016,8 64 0 0,0
18.07.2018 22:00:00 22,0 8,5 19,4 24,1 24,9 18,7 10 6 14 8 N 1016,3 70 4 0,0
18.07.2018 21:00:00 23,3 8,3 21,2 26,2 24,9 18,7 6 3 13 7 N 1015,9 70 60 0,0
18.07.2018 20:00:00 24,7 7,4 26,6 28,3 24,8 18,7 6 3 19 10 N 1015,5 70 60 0,0
18.07.2018 19:00:00 24,9 8,1 29,0 30,3 24,5 18,7 8 4 24 13 NNE 1015,6 66 60 0,0
18.07.2018 18:00:00 25,6 7,5 30,5 31,7 24,1 18,7 9 5 21 11 N 1015,8 70 60 0,0
18.07.2018 17:00:00 25,7 9,3 30,9 31,3 23,6 18,7 8 4 21 11 WNW 1016,1 41 31 0,0
18.07.2018 16:00:00 24,6 8,5 31,2 33,3 22,9 18,7 11 6 19 11 NNW 1016,6 36 49 0,0
18.07.2018 15:00:00 24,7 9,0 28,6 32,5 22,3 18,7 10 5 22 12 W 1016,9 38 50 0,0
18.07.2018 14:00:00 24,5 9,4 30,3 30,0 21,7 18,7 11 6 21 12 WNW 1017,0 57 43 0,0
18.07.2018 13:00:00 24,5 9,7 29,5 29,5 21,1 18,7 11 6 23 13 WNW 1017,1 34 56 0,0
18.07.2018 12:00:00 23,9 9,6 29,2 26,8 20,7 18,7 9 5 21 11 SE 1017,5 53 47 0,0
18.07.2018 11:00:00 23,1 10,5 27,3 25,3 20,4 18,7 6 4 17 9 ESE 1017,8 23 60 0,0
18.07.2018 10:00:00 21,4 10,7 24,9 22,2 20,3 18,7 10 5 16 9 E 1018,2 26 60 0,0
18.07.2018 09:00:00 19,0 10,7 21,3 19,7 20,3 18,7 10 5 15 8 ENE 1018,2 16 60 0,0
18.07.2018 08:00:00 17,4 11,6 18,6 17,5 20,5 18,7 9 5 16 9 ENE 1018,4 18 49 0,0
18.07.2018 07:00:00 15,9 11,5 15,8 16,4 20,8 18,7 13 7 16 9 NE 1018,5 23 27 0,0
18.07.2018 06:00:00 15,1 11,5 13,5 16,5 21,0 18,7 9 5 16 9 ENE 1018,3 23 0 0,0
18.07.2018 05:00:00 15,8 11,6 14,2 17,1 21,3 18,7 9 5 14 8 E 1018,2 32 0 0,0
18.07.2018 04:00:00 17,1 11,8 15,9 17,4 21,6 18,7 10 5 14 7 NE 1018,0 42 0 0,0
18.07.2018 03:00:00 17,7 12,0 15,7 17,9 21,8 18,7 10 5 16 8 NE 1017,7 41 0 0,0
18.07.2018 02:00:00 18,7 12,3 16,5 18,4 22,1 18,7 8 4 14 7 N 1017,4 40 0 0,0
18.07.2018 01:00:00 19,2 12,6 16,2 19,0 22,4 18,7 6 3 20 11 NNE 1017,1 39 0 0,0
18.07.2018 00:00:00 20,5 12,9 18,5 19,6 22,6 18,7 12 6 26 14 N 1016,9 41 0 0,0
17.07.2018 23:00:00 22,0 12,4 19,9 20,3 22,9 18,7 13 7 22 12 NW 1016,4 44 0 0,0
17.07.2018 22:00:00 22,6 11,7 20,5 21,4 23,0 18,7 11 6 18 10 NW 1015,8 47 4 0,0
17.07.2018 21:00:00 23,8 11,7 22,2 22,7 23,1 18,7 12 7 24 13 WNW 1015,0 56 55 0,0
17.07.2018 20:00:00 25,2 11,5 25,4 24,1 23,0 18,7 13 7 31 17 WNW 1014,4 44 57 0,0
17.07.2018 19:00:00 26,0 10,9 27,8 25,3 22,9 18,7 12 7 33 18 WNW 1013,9 49 53 0,0
17.07.2018 18:00:00 26,4 11,7 28,8 25,6 22,8 18,7 17 9 33 18 WNW 1014,0 30 39 0,0
17.07.2018 17:00:00 26,6 10,3 29,0 25,8 22,6 18,7 17 9 32 17 WNW 1014,0 56 17 0,0
17.07.2018 16:00:00 26,4 10,5 29,0 26,7 22,4 18,7 17 9 29 16 WNW 1014,1 41 34 0,0
17.07.2018 15:00:00 25,5 11,2 26,5 27,0 22,0 18,7 18 10 31 17 WNW 1014,1 56 29 0,0
17.07.2018 14:00:00 26,7 8,8 29,9 28,2 21,6 18,7 19 10 32 18 W 1013,9 23 56 0,0
17.07.2018 13:00:00 25,8 11,4 30,5 28,1 21,1 18,7 12 7 29 15 W 1014,4 30 58 0,0
17.07.2018 12:00:00 25,1 15,2 28,9 27,2 20,7 18,7 14 8 22 12 WSW 1014,3 20 60 0,0
17.07.2018 11:00:00 23,5 15,4 26,8 25,1 20,4 18,7 9 5 14 7 WSW 1014,3 25 60 0,0
17.07.2018 10:00:00 20,6 14,4 23,3 22,4 20,2 18,7 8 5 13 7 SW 1014,5 16 60 0,0
17.07.2018 09:00:00 19,5 14,5 21,1 19,7 20,2 18,7 3 2 5 3 SSW 1014,4 33 37 0,0
17.07.2018 08:00:00 17,7 12,9 18,8 17,9 20,4 18,7 0 0 7 4 N 1014,6 30 58 0,0
17.07.2018 07:00:00 18,5 11,0 16,4 16,4 20,7 18,7 5 3 8 4 ENE 1014,0 29 34 0,0
17.07.2018 06:00:00 16,2 11,8 12,9 16,3 20,9 18,7 5 3 6 3 ENE 1014,1 35 0 0,0
17.07.2018 05:00:00 18,8 11,4 12,9 16,7 21,2 18,7 2 1 11 6 E 1013,4 52 0 0,0
17.07.2018 04:00:00 16,1 12,3 13,9 17,0 21,5 18,7 9 5 10 6 ENE 1013,6 37 0 0,0
17.07.2018 03:00:00 17,0 12,9 14,0 17,5 21,9 18,7 6 3 8 5 E 1013,8 42 0 0,0
17.07.2018 02:00:00 18,6 12,6 12,9 18,0 22,2 18,7 3 1 6 3 S 1013,5 42 0 0,0
17.07.2018 01:00:00 18,0 13,9 14,0 18,6 22,5 18,7 3 1 5 3 SE 1013,5 37 0 0,0
17.07.2018 00:00:00 20,3 11,4 14,7 19,3 22,9 18,7 4 2 8 4 NNW 1013,1 63 0 0,0
16.07.2018 23:00:00 21,6 13,0 14,8 20,3 23,1 18,7 0 0 3 2 N 1012,5 43 0 0,0
16.07.2018 22:00:00 21,8 13,3 16,0 21,7 23,3 18,7 0 0 7 4 N 1012,0 52 5 0,0
16.07.2018 21:00:00 21,5 12,8 19,7 23,1 23,4 18,7 6 3 8 4 E 1011,6 56 58 0,0
16.07.2018 20:00:00 22,1 14,5 22,6 24,2 23,5 18,7 5 3 10 6 E 1011,2 58 60 0,0
16.07.2018 19:00:00 22,2 15,6 23,2 25,2 23,5 18,7 7 4 13 7 ENE 1011,0 48 46 0,0
16.07.2018 18:00:00 19,0 15,2 20,2 24,3 23,4 18,7 9 5 57 31 E 1011,9 24 4 3,7
16.07.2018 17:00:00 25,8 9,9 28,0 29,2 23,1 18,7 4 2 13 7 SW 1010,5 45 47 0,0
16.07.2018 16:00:00 25,2 10,8 26,8 28,6 22,7 18,7 4 2 24 13 SSE 1011,1 59 41 0,0
16.07.2018 15:00:00 25,9 12,1 30,6 30,1 22,1 18,7 9 5 19 11 ESE 1011,2 21 60 0,0
16.07.2018 14:00:00 25,4 13,4 30,0 29,9 21,6 18,7 7 4 20 11 SE 1012,0 32 60 0,0
16.07.2018 13:00:00 24,3 13,6 28,2 29,0 21,0 18,7 7 4 16 8 SSE 1012,5 30 60 0,0
16.07.2018 12:00:00 22,7 13,0 26,5 27,5 20,6 18,7 6 3 13 7 SW 1013,0 32 59 0,0
16.07.2018 11:00:00 21,6 13,3 25,3 25,4 20,2 18,7 7 4 13 7 SE 1013,3 35 60 0,0
16.07.2018 10:00:00 20,1 14,0 23,4 22,8 20,0 18,7 5 3 9 5 SSW 1013,6 31 60 0,0
16.07.2018 09:00:00 18,0 13,2 20,8 20,1 20,0 18,7 4 2 7 4 WSW 1014,2 35 60 0,0
16.07.2018 08:00:00 17,2 14,7 18,2 17,6 20,2 18,7 0 0 4 2 N 1014,5 24 60 0,0

tt = Température de l'air
td = dewpoint
tt 5cm = Température de l'air 5cm
tt -5cm = Température de l'air -5cm
tt -20cm = Température de l'air -20cm
tt -100cm = Température de l'air -100cm
ff = Vitesse du vent
fx = gusts
dd = Direction du vent
ppp = reduced air pressure
vv = visibility
sd = Ensoleillement
rr = Quantités de précipitations

stations d'obs. à proximité